This demonstration page uses our WeatherBlox Daily Observations layout. Learn more.

Left ArrowRight Arrow

36.17497, -115.13722

Hourly Observations for May 4, 2016

Temp ( °F °C ) Dew Point ( °F °C ) Humidity (%) Winds ( mph kmh ) Pressure ( in mb ) Visibility ( mi km ) Precip ( " mm )
12:53 am 00:53 Clear 69 20.6 39 3.9 33 33 NW 5 7 29.94 1014 10 16.0934 0 0
1:53 am 01:53 Clear 68 20 39 3.9 35 35 Calm 29.95 1014 10 16.0934 0 0
2:53 am 02:53 Clear 68 20 39 3.9 35 35 WNW 5 7 29.94 1014 10 16.0934 0 0
3:53 am 03:53 Clear 65 18.3 41 5 42 42 NW 6 9 29.93 1014 10 16.0934 0 0
4:53 am 04:53 Clear 64 17.8 41 5 43 43 Calm 29.93 1013 10 16.0934 0 0
5:53 am 05:53 Sunny 64 17.8 40 4.4 41 41 NW 5 7 29.94 1014 10 16.0934 0 0
6:53 am 06:53 Sunny 65 18.3 43 6.1 45 45 N 3 6 29.95 1014 10 16.0934 0 0
7:53 am 07:53 Sunny 71 21.7 42 5.6 35 35 Calm 29.95 1014 10 16.0934 0 0
8:53 am 08:53 Sunny 76 24.4 35 1.7 23 23 ESE 3 6 29.94 1014 10 16.0934 0 0
9:53 am 09:53 Sunny 78 25.6 35 1.7 21 21 S 3 6 29.94 1014 10 16.0934 0 0
10:53 am 10:53 Sunny 81 27.2 33 0.6 18 18 ESE 5 7 29.93 1014 10 16.0934 0 0
11:53 am 11:53 Sunny 83 28.3 34 1.1 17 17 ESE 5 7 29.91 1013 10 16.0934 0 0
12:53 pm 12:53 Sunny 85 29.4 35 1.7 17 17 S 14 22 29.89 1012 10 16.0934 0 0
1:53 pm 13:53 Sunny 88 31.1 35 1.7 15 15 S 8 13 29.86 1011 10 16.0934 0 0
2:53 pm 14:53 Sunny 90 32.2 26 -3.3 10 10 SSE 15 24 29.81 1010 10 16.0934 0 0
3:51 pm 15:51 Sunny 90 32 27 -3 10 10 SSE 17 28 29.62 1003 10 16.0934 0 0
3:53 pm 15:53 Sunny 90 32.2 26 -3.3 10 10 SSE 16 26 29.78 1009 10 16.0934 0 0
4:53 pm 16:53 Sunny 90 32.2 25 -3.9 9 9 S 15 24 29.76 1008 10 16.0934 0 0
5:53 pm 17:53 Sunny 90 32.2 22 -5.6 8 8 SSE 21 33 29.75 1007 10 16.0934 0 0
6:53 pm 18:53 Sunny 89 31.7 24 -4.4 9 9 SSW 10 17 29.74 1007 10 16.0934 0 0
7:53 pm 19:53 Clear 87 30.6 24 -4.4 10 10 SSW 10 17 29.74 1007 10 16.0934 0 0
8:53 pm 20:53 Clear 84 28.9 26 -3.3 12 12 SSW 6 9 29.75 1008 10 16.0934 0 0
9:53 pm 21:53 Clear 82 27.8 27 -2.8 13 13 S 7 11 29.76 1008 10 16.0934 0 0
10:53 pm 22:53 Clear 79 26.1 29 -1.7 16 16 S 7 11 29.76 1008 10 16.0934 0 0
11:53 pm 23:53 Clear 77 25 29 -1.7 17 17 S 7 11 29.76 1008 10 16.0934 0 0

Powered by AerisWeather